www.pogodaiklimat.ru

Погода и климат >> Архив погоды >> Португалия >> Faro


ПОГОДА в Faro

  • Прогноз погоды в Faro
  • Монитор погоды в Faro
  • Климат города

АРХИВ ПОГОДЫ в Faro

Время (UTC), дата Ветер
(напр.,м/с)
 
Видим.   Явления Облачность Т
(С)
Тd
(С)
f
(%)
Тe
(С)
Тes
(С)
Комфортность P
(гПа)
Po
(гПа)
Тmin
(С)
Tmax
(С)
R
(мм)
R24
(мм)
S
(см)
17 11.10 З 3
{6}
н/о н/о +22.1 +20.1 88 +28 +28 душно 1015.6 1014.6
16 11.10 СЗ 5
{11}
н/о н/о +21.5 +20.4 93 +27 +27 душно 1015.1 1014.2
18 11.10 З 2 н/о н/о +22.0 +19.7 87 +28 +28 душно 1016.2 1015.2 +23.3 0.6
19 11.10 З 3 н/о н/о +21.9 +19.2 85 +27 +27 душно 1017.1 1016.1
20 11.10 З 2
{5}
н/о н/о +21.8 +18.8 83 +27 +27 душно 1017.6 1016.7
21 11.10 З 4 н/о н/о +21.6 +18.0 80 +26 +26 душно 1018.2 1017.3
23 11.10 З 2 н/о н/о +21.2 +18.5 85 +26 +26 душно 1018.7 1017.7
22 11.10 З 4 н/о н/о +21.4 +18.3 83 +26 +26 душно 1018.7 1017.8
00 12.10 СЗ 1 20 км 9/9 750 м
[Sc]
+21.6 +19.0 85 +26 +26 душно 1018.5 1017.6
01 12.10 СЗ 2 н/о н/о +21.5 +19.4 88 +26 +26 душно 1018.5 1017.5
02 12.10 З 2 н/о н/о +21.1 +19.0 88 +25 +25 комфорт 1018.5 1017.6
03 12.10 С 1 20 км 9/9 360 м
[Cu Sc]
+20.2 +19.0 93 +25 +25 комфорт 1018.6 1017.7
05 12.10 С 1 н/о н/о +19.9 +18.5 92 +24 +24 комфорт 1019.4 1018.4
04 12.10 В 1 н/о н/о +20.2 +19.0 93 +25 +25 комфорт 1018.9 1018.0
06 12.10 С 2 н/о н/о +19.3 +18.4 95 +22 +22 комфорт 1019.9 1018.9 +19.3
07 12.10 С 1 н/о н/о +18.9 +17.9 94 +21 +21 комфорт 1020.7 1019.7
08 12.10 С 1 н/о н/о +20.6 +18.7 89 +26 +26 душно 1021.2 1020.3
09 12.10 СВ 1 20 км 6/1 360 м
[Cu hum Ci fib]
+22.2 +18.6 80 +27 +30 душно 1021.7 1020.8
11 12.10 С 2 н/о н/о +23.9 +16.6 64 +27 +27 жарко 1022.2 1021.2
10 12.10 штиль 0 н/о н/о +23.7 +18.0 70 +28 +28 душно 1021.9 1021.0
12 12.10 С 3
{5}
25 км 5/1 600 м
[Cu med, cong Ci fib]
+23.7 +17.6 69 +28 +35 душно 1022.1 1021.2
13 12.10 С 3
{5}
н/о н/о +24.1 +18.4 70 +29 +29 душно 1021.8 1020.8
14 12.10 СЗ 3
{6}
н/о н/о +24.2 +18.2 69 +29 +29 душно 1021.5 1020.5
15 12.10 СЗ 2
{5}
н/о н/о +23.9 +19.1 75 +29 +29 душно 1021.4 1020.4
17 12.10 СЗ 2 н/о н/о +23.0 +18.4 75 +29 +29 очень
душно
1021.1 1020.2
16 12.10 СЗ 2
{5}
н/о н/о +23.3 +18.9 76 +30 +30 очень
душно
1021.4 1020.4
18 12.10 СЗ 1 20 км 8/0
[Ci fib]
+22.2 +18.5 80 +27 +27 душно 1021.1 1020.2 +24.6
19 12.10 СЗ 1 н/о н/о +21.8 +18.7 83 +27 +27 душно 1021.1 1020.1
20 12.10 С 1 н/о н/о +21.7 +18.7 83 +27 +27 душно 1021.2 1020.2
21 12.10 С 2 н/о н/о +21.0 +18.4 85 +26 +26 душно 1021.0 1020.1
23 12.10 В 2 н/о н/о +19.8 +17.4 86 +23 +23 комфорт 1019.5 1018.5
22 12.10 С 1 н/о н/о +20.5 +18.0 86 +25 +25 комфорт 1020.4 1019.5
00 13.10 СВ 2 н/о н/о +19.9 +16.7 82 +23 +23 комфорт 1019.1 1018.2
01 13.10 В 2 н/о н/о +19.3 +16.6 84 +22 +22 комфорт 1018.7 1017.8
02 13.10 В 3 н/о н/о +20.2 +16.2 78 +23 +23 комфорт 1017.9 1016.9
03 13.10 СВ 3 20 км ясно +20.3 +15.7 75 +23 +23 комфорт 1017.5 1016.6
05 13.10 СВ 2 н/о н/о +19.6 +15.8 79 +22 +22 комфорт 1017.0 1016.1
04 13.10 В 3 н/о н/о +20.1 +15.3 74 +23 +23 комфорт 1017.2 1016.2
06 13.10 В 2 н/о н/о +19.7 +16.3 81 +23 +23 комфорт 1016.8 1015.9 +19.2
07 13.10 СВ 3 н/о н/о +20.1 +17.7 86 +23 +23 комфорт 1016.5 1015.6
08 13.10 СВ 4 н/о н/о +20.9 +18.8 88 +25 +25 комфорт 1016.5 1015.6
09 13.10 В 4
{6}
20 км 6/1 300 м
[Cu hum Ci fib]
+23.1 +20.1 83 +30 +32 очень
душно
1016.8 1015.9
11 13.10 СВ 7 н/о н/о +24.4 +19.3 73 +29 +29 душно 1016.0 1015.0
10 13.10 В 5 н/о н/о +24.2 +19.3 74 +29 +29 душно 1016.5 1015.6
12 13.10 СВ 7 н/о н/о +24.8 +19.5 72 +30 +30 душно 1015.4 1014.5
13 13.10 В 7 н/о н/о +24.8 +20.1 75 +30 +30 душно 1014.6 1013.6
14 13.10 СВ 7 н/о н/о +24.9 +19.9 74 +30 +30 душно 1013.7 1012.8
15 13.10 СВ 6
{9}
н/о н/о +24.5 +20.1 76 +30 +30 очень
душно
1013.7 1012.8
17 13.10 С 4
{7}
н/о н/о +23.3 +20.4 84 +31 +31 очень
душно
1013.3 1012.3
16 13.10 СВ 5
{8}
н/о н/о +24.1 +20.2 79 +30 +30 очень
душно
1013.1 1012.2
18 13.10 С 3
{5}
н/о н/о +22.6 +20.5 88 +29 +29 очень
душно
1012.4 1011.5 +25.4
19 13.10 С 4
{6}
н/о н/о +22.5 +20.6 89 +29 +29 очень
душно
1011.7 1010.7
20 13.10 С 5 н/о н/о +22.4 +21.2 93 +29 +29 очень
душно
1011.3 1010.4
21 13.10 СЗ 6 15 км 8/6 300 м
[Cu hum Ci fib]
+23.0 +21.3 90 +31 +31 очень
душно
1012.0 1011.1
23 13.10 СЗ 9 н/о н/о +23.2 +20.8 86 +31 +31 очень
душно
1010.3 1009.3
22 13.10 СЗ 8 н/о н/о +23.1 +20.6 86 +30 +30 очень
душно
1011.2 1010.3
00 14.10 СЗ 7-13
{14}
н/о н/о +19.0 +17.8 93 +20 +20 1011.1 1010.1 0.2
01 14.10 СЗ 7
{13}
н/о н/о +17.9 +15.2 84 +17 +17 1012.1 1011.2 0.5
02 14.10 СЗ 6
{11}
н/о н/о +16.9 +15.1 89 +16 +16 1012.8 1011.9 0.2
03 14.10 СЗ 4-8
{8}
15 км в посл. час дождь 6/6 450 м
[Cu Sc]
+16.3 +14.4 89 +16 +16 1012.9 1012.0
05 14.10 СЗ 2
{7}
н/о н/о +15.4 +12.5 83 +15 +15 1014.3 1013.3
04 14.10 СЗ 4
{8}
н/о н/о +16.2 +13.8 86 +15 +15 1013.7 1012.7
06 14.10 СЗ 3-6
{6}
н/о н/о +14.9 +10.6 75 +14 +14 1014.8 1013.9 +14.8 1
07 14.10 СЗ 4-7
{7}
н/о н/о +14.8 +10.4 75 +14 +14 1015.2 1014.2
08 14.10 СЗ 4
{10}
н/о н/о +15.4 +10.3 72 +14 +14 1016.6 1015.6
09 14.10 СЗ 4-7
{7}
20 км 8/0
[Cs]
+17.1 +9.3 60 +17 +18 1017.6 1016.6
11 14.10 СЗ 7-11
{12}
н/о н/о +19.7 +5.8 40 +20 +20 1017.7 1016.8
10 14.10 СЗ 7-10
{11}
н/о н/о +18.8 +7.7 48 +19 +19 1017.8 1016.8
12 14.10 СЗ 7
{12}
н/о н/о +20.4 +6.8 41 +21 +21 комфорт 1017.5 1016.5
13 14.10 СЗ 8
{12}
н/о н/о +21.6 +6.6 38 +22 +22 комфорт 1016.4 1015.5
14 14.10 СЗ 8
{13}
н/о н/о +22.0 +6.2 36 +23 +23 комфорт 1015.7 1014.8
15 14.10 СЗ 6
{11}
н/о н/о +21.6 +7.6 40 +23 +23 комфорт 1015.3 1014.4
17 14.10 СЗ 7-11
{11}
н/о н/о +20.6 +8.9 47 +22 +22 комфорт 1015.4 1014.4
16 14.10 СЗ 7
{11}
н/о н/о +21.6 +7.9 41 +23 +23 комфорт 1015.2 1014.2
18 14.10 СЗ 7 20 км 1/1 1500 м
[Sc Ci fib]
+18.7 +8.9 53 +19 +19 1016.3 1015.4 +22.4
19 14.10 СЗ 4
{9}
н/о н/о +17.4 +8.4 55 +17 +17 1016.9 1016.0
20 14.10 СЗ 3
{6}
н/о н/о +16.4 +8.8 61 +16 +16 1017.1 1016.2
21 14.10 СЗ 3
{5}
н/о н/о +15.7 +8.4 62 +15 +15 1017.5 1016.5
23 14.10 СЗ 1 н/о н/о +13.5 +8.5 72 +14 +14 1017.8 1016.8
22 14.10 СЗ 1 н/о н/о +14.4 +8.3 67 +15 +15 1017.9 1016.9
00 15.10 СЗ 2 н/о н/о +13.5 +9.2 75 +13 +13 1017.6 1016.6
01 15.10 СЗ 1 н/о н/о +14.1 +8.7 70 +15 +15 1017.5 1016.5
02 15.10 С 2 н/о н/о +13.5 +8.5 72 +13 +13 1016.8 1015.9
03 15.10 СВ 1 н/о н/о +13.3 +8.6 73 +14 +14 1016.2 1015.3
05 15.10 СВ 2 н/о н/о +13.7 +9.0 73 +13 +13 1015.6 1014.6
04 15.10 СВ 1 н/о н/о +13.3 +8.8 74 +14 +14 1015.9 1014.9
06 15.10 СВ 2 н/о н/о +14.0 +9.2 73 +14 +14 1015.3 1014.4 +12.3
07 15.10 СВ 1 н/о н/о +15.0 +10.0 72 +16 +16 1015.0 1014.1
08 15.10 З 2
{5}
н/о н/о +16.8 +12.4 75 +17 +17 1015.0 1014.0
09 15.10 З 7-11
{11}
н/о н/о +18.9 +14.9 78 +19 +19 1014.8 1013.8
11 15.10 СЗ 9 н/о н/о +20.9 +15.2 70 +24 +24 комфорт 1013.4 1012.5
10 15.10 З 7
{11}
н/о н/о +20.4 +14.5 69 +23 +23 комфорт 1014.3 1013.4
12 15.10 СЗ 12 15 км 9/9 600 м
[Cu Sc]
+19.7 +17.1 85 +21 +21 комфорт 1012.1 1011.1
13 15.10 СЗ 13 н/о н/о +19.1 +18.1 94 +20 +20 1010.8 1009.9 0.9
14 15.10 З 10
{19}
н/о н/о +20.2 +18.9 92 +23 +23 комфорт 1010.6 1009.7 0.6
15 15.10 З 8
{16}
12 км в посл. час дождь 9/9 300 м
[Cu Sc]
+19.8 +17.3 86 +22 +22 комфорт 1010.2 1009.2
17 15.10 СЗ 7-11
{11}
н/о н/о +20.8 +14.6 68 +23 +23 комфорт 1010.5 1009.5
16 15.10 З 7
{11}
н/о н/о +20.9 +16.3 75 +24 +24 комфорт 1010.1 1009.2
18 15.10 СЗ 4
{9}
20 км {дождь} 9/9 600 м
[Cu Sc]
+19.3 +15.1 77 +21 +21 комфорт 1011.0 1010.1 +21.5
19 15.10 СЗ 4
{6}
н/о н/о +18.7 +14.9 79 +20 +20 1011.6 1010.6
20 15.10 З 4
{6}
н/о н/о +18.3 +15.1 82 +19 +19 1011.8 1010.9
21 15.10 СЗ 4
{6}
н/о н/о +17.6 +15.4 87 +17 +17 1012.2 1011.2
23 15.10 С 1 н/о н/о +16.7 +15.3 91 +18 +18 1012.6 1011.7
22 15.10 СЗ 2
{5}
н/о н/о +17.3 +15.3 88 +18 +18 1012.5 1011.6
00 16.10 С 2 15 км 4/4 900 м
[Sc Ci fib]
+16.4 +15.1 92 +16 +16 1012.4 1011.5
01 16.10 СЗ 1 н/о н/о +16.8 +15.5 92 +18 +18 1012.4 1011.5
02 16.10 С 2 н/о н/о +16.8 +15.4 91 +17 +17 1012.2 1011.2
03 16.10 СЗ 2 н/о н/о +16.6 +15.3 92 +17 +17 1012.2 1011.2
05 16.10 С 1 н/о н/о +16.4 +15.5 94 +17 +17 1012.5 1011.5
04 16.10 СЗ 2 н/о н/о +16.4 +15.4 94 +16 +16 1012.4 1011.4
06 16.10 СЗ 1 15 км 6/6 540 м
[]
+16.3 +15.7 96 +17 +17 1013.0 1012.1 +16.0
07 16.10 С 1 н/о н/о +17.1 +15.8 92 +18 +18 1013.3 1012.4
08 16.10 штиль 0 н/о н/о +18.5 +16.2 86 +19 +19 1014.3 1013.4
09 16.10 СВ 2 н/о н/о +19.1 +15.2 78 +21 +21 комфорт 1015.0 1014.1
11 16.10 С 3
{5}
н/о н/о +20.7 +14.3 67 +24 +24 комфорт 1015.6 1014.7
10 16.10 н/о н/о +21.0 +16.1 74 1015.3 1014.3
12 16.10
{5}
н/о н/о +21.2 +13.8 63 1015.5 1014.6
13 16.10 СЗ 2
{5}
н/о н/о +21.5 +13.7 61 +24 +24 комфорт 1015.2 1014.3
14 16.10 С 3
{5}
н/о н/о +22.2 +13.5 58 +25 +25 комфорт 1015.1 1014.2
15 16.10 С 4-8
{8}
н/о н/о +22.5 +14.0 59 +26 +26 жарко 1015.4 1014.5
17 16.10 С 2
{6}
н/о н/о +22.9 +13.6 56 +26 +26 жарко 1015.7 1014.7
16 16.10 С 4
{7}
н/о н/о +23.1 +13.2 54 +26 +26 жарко 1015.4 1014.5
18 16.10 С 3
{6}
20 км 4/4 1080 м
[Cu Sc]
+22.0 +13.2 57 +25 +25 комфорт 1016.2 1015.3 +23.5
19 16.10 С 2 н/о н/о +20.8 +13.1 61 +24 +24 комфорт 1017.0 1016.1
20 16.10 СЗ 3 н/о н/о +19.2 +12.8 66 +21 +21 комфорт 1017.2 1016.2
21 16.10 С 3
{5}
н/о н/о +18.3 +12.6 69 +19 +19 1017.7 1016.7
23 16.10 З 2 н/о н/о +16.3 +13.1 81 +16 +16 1018.0 1017.0
22 16.10 СЗ 3 н/о н/о +17.1 +12.8 76 +17 +17 1017.9 1016.9
00 17.10 СЗ 2 н/о н/о +16.7 +12.8 78 +17 +17 1017.9 1017.0
01 17.10 С 1 н/о н/о +16.6 +12.8 78 +17 +17 1017.5 1016.6
02 17.10 С 2 н/о н/о +18.0 +12.5 70 +19 +19 1017.4 1016.4
03 17.10 С 1 20 км ясно +17.1 +12.1 72 +18 +18 1017.2 1016.2
05 17.10 С 2 н/о н/о +17.7 +12.0 69 +18 +18 1017.3 1016.4
04 17.10 С 2 н/о н/о +17.4 +12.1 71 +18 +18 1017.1 1016.1
06 17.10 С 1 20 км ясно +17.2 +12.1 72 +18 +18 1017.5 1016.6 +15.6
07 17.10 С 1 н/о н/о +17.4 +11.9 70 +18 +18 1017.7 1016.7
08 17.10 С 2 н/о н/о +19.5 +12.5 64 +21 +21 комфорт 1018.0 1017.0
09 17.10 штиль 0 25 км ясно +22.5 +13.1 55 +25 +29 комфорт 1018.3 1017.4
11 17.10 СЗ 3
{5}
н/о н/о +22.2 +14.1 60 +25 +25 комфорт 1018.1 1017.1
10 17.10 СЗ 3
{5}
н/о н/о +21.5 +14.3 64 +24 +24 комфорт 1018.3 1017.3
12 17.10 СЗ 4
{6}
25 км 1/1 900 м
[Cu med, cong]
+22.5 +15.4 64 +26 +32 жарко 1017.4 1016.5
13 17.10 З 5 н/о н/о +22.7 +15.0 62 +27 +27 душно 1016.6 1015.7
14 17.10 З 6 н/о н/о +22.8 +15.6 64 +27 +27 душно 1016.0 1015.0
15 17.10 З 7 20 км 1/1 900 м
[Cu hum]
+23.2 +16.1 64 +28 +29 душно 1015.4 1014.5
17 17.10 З 8 н/о н/о +21.9 +15.7 68 +26 +26 душно 1014.4 1013.5
16 17.10 З 8 н/о н/о +23.0 +15.5 63 +27 +27 душно 1014.8 1013.8
18 17.10 З 6
{11}
20 км 1/1 900 м
[Sc]
+21.0 +14.7 67 +24 +24 комфорт 1014.4 1013.4 +23.9
19 17.10 СЗ 3-5
{6}
н/о н/о +19.6 +14.5 72 +22 +22 комфорт 1014.5 1013.5
20 17.10 СЗ 2
{6}
н/о н/о +17.9 +13.5 75 +18 +18 1014.1 1013.2
21 17.10 СЗ 4
{7}
н/о н/о +17.6 +13.3 76 +17 +17 1014.4 1013.5
23 17.10 СЗ 5-8
{10}
н/о н/о +17.3 +12.5 73 +17 +17 1013.5 1012.6
22 17.10 СЗ 4
{6}
н/о н/о +17.8 +13.9 78 +18 +18 1014.0 1013.0
00 18.10 С 3-6
{9}
15 км гроза, ливневой дождь 10/4 450 м
[Cb cap As op]
+15.7 +12.2 80 +15 +15 1012.4 1011.4
01 18.10 З 4
{6}
н/о н/о +15.2 +12.8 86 +14 +14 1012.7 1011.7 0.7
02 18.10 СЗ 4-7
{8}
н/о н/о +14.6 +12.2 86 +13 +13 1011.8 1010.8
03 18.10 СЗ 3
{6}
н/о н/о +14.9 +12.0 83 +14 +14 1010.9 1009.9
05 18.10 СЗ 4-7
{9}
н/о н/о +14.2 +12.2 88 +13 +13 1010.3 1009.4
04 18.10 З 6
{9}
н/о н/о +14.5 +12.5 88 +13 +13 1010.3 1009.3 0.2
06 18.10 СЗ 5 25 км {гроза, дождь} 4/1 540 м
[Cu med, cong Ac As]
+14.1 +11.9 87 +12 +12 1009.4 1008.5 +14.0 1
07 18.10 СЗ 6 н/о н/о +14.2 +11.8 85 +12 +12 1009.3 1008.4
08 18.10 СЗ 5 н/о н/о +14.5 +12.0 85 +13 +13 1009.5 1008.5
09 18.10 СЗ 5 н/о н/о +15.7 +12.3 80 +15 +15 1009.6 1008.7
11 18.10 С 3
{7}
н/о н/о +17.1 +13.2 78 +17 +17 1009.0 1008.1
10 18.10 СЗ 2
{6}
н/о н/о +16.0 +13.0 82 +16 +16 1009.2 1008.2 0.2
12 18.10 СЗ 3
{6}
15 км слабый ливневой дождь 9/9 600 м
[]
+16.9 +13.3 79 +17 +18 1008.6 1007.6 0.3
13 18.10 СВ 3-6
{6}
н/о н/о +18.1 +11.2 64 +18 +18 1007.9 1007.0
14 18.10 С 4-7
{7}
н/о н/о +18.7 +10.7 60 +19 +19 1007.5 1006.6

 

Местоположение метеостанции Faro (Португалия): широта 37.02 долгота -7.97 высота над уровнем моря 8 м.

В архиве по умолчанию представлена погода в Faro за последнюю неделю. Архивные данные за месяц целиком и за предыдущие месяцы, начиная с января 2011 года, Вы можете получить, выбрав интересующий диапазон дат из раскрывающегося списка и нажав кнопку "Ввод!".


*Определитесь, кто Вы:
робот инопланетянин человек

Внимание! Время в таблицах - всемирное. Для получения местного времени необходимо прибавить поправку, которая в Faro равна 0 ч.

Смотрите также архив погоды в соседних городах и на ближайших метеорологических станциях:

Погода в Sagres (Португалия) (87 км)
Погода в Huelva (Испания) (97 км)
Погода в Beja (Португалия) (112 км)
Погода в Beja / B. Aerea (Португалия) (117 км)
Погода в Sines (Португалия) (130 км)
Погода в Cadiz Bay (Испания) (163 км)
Погода в Evora (Португалия) (168 км)
Погода в Jerez de la Frontera (Испания) (172 км)
Погода в Sevilla (Испания) (189 км)
Погода в Montijo (Португалия) (209 км)

Пояснения к столбцам:

Ветер - указаны скорость ветра в м/с - средняя за 10 мин, порывы в срок и между сроками (в фигурных скобках) и направление, откуда дует ветер: С - северный, СВ - северо-восточный, В - восточный, ЮВ - юго-восточный, Ю - южный, ЮЗ - юго-западный, З - западный, СЗ - северо-западный.
Видимость - горизонтальная дальность видимости в метрах или километрах. При видимости от 1 до 10 км при отсутствии осадков обычно наблюдается дымка, при ухудшении видимости до 1 км и менее - туман. В сухую погоду видимость может ухудшаться дымом, пылью или мглою.
Явления - указаны атмосферные явления, наблюдавшиеся в срок или в последний час перед сроком; фигурными скобками обозначены явления, наблюдавшиеся между сроками (за 1-3 часа до срока); квадратными скобками обозначены град или гололедные отложения с указанием их диаметра в мм.
Облачность - указаны через наклонную черту общая и нижняя облачность в баллах и высота нижней границы облаков в метрах; квадратными скобками обозначены формы облаков: Ci - перистые, Cs - перисто-слоистые, Cc - перисто-кучевые, Ac - высококучевые, As - высокослоистые, Sc - слоисто-кучевые, Ns - слоисто-дождевые, Cu - кучевые, Cb - кучево-дождевые. Подробнее классификацию облаков см. в Атласе облаков (PDF).
T - Температура воздуха - температура, измеренная на высоте 2 м над землей.
Td - Температура точки росы - температура, при понижении до которой содержащийся в воздухе водяной пар достигнет насыщения.
f - Относительная влажность воздуха - влажноcть воздуха, измеренная на высоте 2 м над землей.
Te - Эффективная температура - температура, которую ощущает одетый по сезону человек в тени. Характеристика душности погоды. При расчете учитывается влияние влажности воздуха и скорости ветра на теплоощущения человека.
Tes - Эффективная температура на солнце - температура, которую ощущает человек, с поправкой на солнечный нагрев. Характеристика знойности погоды. Зависит от высоты солнца над горизонтом, облачности и скорости ветра. Ночью, в пасмурную погоду, а также при ветре 12 м/с и более поправка равна нулю.
P - Атмосферное давление - приведенное к уровню моря атмосферное давление.
Po - Атмосферное давление - измеренное на уровне метеостанции атмосферное давление.
Tmin - Минимальная температура - минимум температуры воздуха на высоте 2 м над землей.
Tmax - Максимальная температура - максимум температуры воздуха на высоте 2 м над землей.
R - Количество осадков - Количество выпавших осадков за период времени, мм. При наведении курсора мыши на число - период времени, за который выпало указанное количество осадков.
R24 - Количество осадков - Количество выпавших осадков за 24 часа, мм.
S - Снежный покров - Высота снежного покрова, см. При наведении курсора мыши на число - состояние снежного покрова и степень покрытия местности в баллах.